Regional Weather Roundup
Issued by NWS

Home | Current Version | Previous Version | Graphics & Text | Print | Product List | Glossary On
Versions: 1 2 3 4 5 6 7 8 9 10 11 12 13 14 15 16 17 18 19 20 21 22 23 24 25 26 27 28 29 30 31 32 33 34 35 36 37 38 39 40 41 42 43 44 45 46 47 48 49 50
000
ASUS43 KMPX 211201
RWRMN
WEATHER ROUNDUP FOR MINNESOTA
NATIONAL WEATHER SERVICE TWIN CITIES/CHANHASSEN MN
600 AM CST SUN DEC 21 2014


NOTE: "FAIR" INDICATES FEW OR NO CLOUDS BELOW 12,000 FEET WITH NO
SIGNIFICANT WEATHER AND/OR OBSTRUCTIONS TO VISIBILITY. N/A MEANS
CURRENT SKY AND/OR WEATHER CONDITIONS ARE NOT AVAILABLE.

MNZ060>063-068>070-211300-
   Twin Cities Metro

CITY           SKY/WX    TMP DP  RH WIND       PRES   REMARKS
TWIN CITIES    CLOUDY    32  30  92 SE12      29.93F FOG     WCI  23
6HR MIN TEMP:  31; 6HR MAX TEMP:  32;

ST PAUL        CLOUDY    32  30  92 SE12      29.95F FOG     WCI  23
CRYSTAL        CLOUDY    34  30  85 SE12      29.90F FOG     WCI  25
BLAINE         CLOUDY    34  34 100 SE12      29.91F FOG     WCI  25
LAKEVILLE      CLOUDY    30  30 100 SE9       29.93S FOG     WCI  22
EDEN PRAIRIE   CLOUDY    33  30  88 SE13      29.91F FOG     WCI  24
6HR MIN TEMP:  31; 6HR MAX TEMP:  33;

SOUTH ST PAUL  CLOUDY    33  31  94 SE7       29.94F FOG     WCI  27
LAKE ELMO      CLOUDY    32  32 100 SE10      29.95F FOG     WCI  24
$$
MNZ001>005-007-008-013>017-022>024-027-028-211300-
   Northwest Minnesota

CITY           SKY/WX    TMP DP  RH WIND       PRES   REMARKS
BEMIDJI        CLOUDY    29  28  96 S8        29.80S FOG     WCI  21
HALLOCK        CLOUDY    30  30 100 CALM      29.71S FOG
ROSEAU         LGT SNOW  30  27  86 S14       29.74F WCI  20
WARROAD        LGT SNOW  30  27  86 S9        29.76F WCI  22
THIEF RVR FALL CLOUDY    30  28  93 S16       29.75F WCI  19
CROOKSTON      CLOUDY    30  30 100 S20G25    29.76F FOG     WCI  18
FOSSTON        CLOUDY    27  27 100 S17       29.77F FOG     WCI  14
DETROIT LAKES  CLOUDY    30  30 100 S14       29.79F FOG     WCI  20
MOORHEAD       CLOUDY    32  32 100 S14       29.79F FOG     WCI  22
PARK RAPIDS    CLOUDY    30  29  96 S10       29.80F FOG     WCI  21
MAHNOMEN       CLOUDY    29  28  95 S14G21    29.78F FOG     WCI  19
$$
MNZ006-009>011-018-025>026-211300-
   North Central Minnesota

CITY           SKY/WX    TMP DP  RH WIND       PRES   REMARKS
BAUDETTE       LGT SNOW  28  26  92 S7        29.79S FOG     WCI  21
FLAG ISLAND    LGT SNOW  28  27  93 S18       29.75F WCI  16
INTL FALLS     CLOUDY    28  26  92 S6        29.83F WCI  22
6HR MIN TEMP:  28; 6HR MAX TEMP:  28; 6HR PCP:  0.12;

WASKISH        MIX PCPN  28  27  93 CALM      29.81F
BIG FORK       CLOUDY    28  27  93 S12       29.83F FOG     WCI  18
LONGVILLE      CLOUDY    28  28 100 S13G21    29.83F FOG     WCI  18
GRAND RAPIDS   CLOUDY    28  27  93 SE15G21   29.84F WCI  17
CRANE LAKE     LGT SNOW  27  27 100 SE6       29.89S WCI  20
ORR            CLOUDY    28  25  86 S12G18    29.84S WCI  18
COOK           CLOUDY    28  27  93 SE13      29.88S FOG     WCI  18
WALKER         CLOUDY    28  27  97 S8        29.82F FOG     WCI  20
$$
MNZ012-019>021-037-211300-
   Northeast Minnesota

CITY           SKY/WX    TMP DP  RH WIND       PRES   REMARKS
DULUTH         CLOUDY    29  26  89 SE9       29.91F FOG     WCI  20
6HR MIN TEMP:  29; 6HR MAX TEMP:  30; 6HR PCP: TRACE;

ELY            CLOUDY    28  27  93 S8        29.90F FOG     WCI  20
HIBBING        CLOUDY    29  25  85 S8        29.88F WCI  21
EVELETH        CLOUDY    30  28  93 S8        29.91S FOG     WCI  23
DULUTH HARBOR  CLOUDY    34  28  80 CALM      29.97F
SILVER BAY     CLOUDY    32  28  86 S8        29.94F WCI  25
GRAND MARAIS     N/A     34  28  79 S15       30.01F WCI  24
G MARAIS ARPRT CLOUDY    27  23  86 S9G16     29.94F FOG     WCI  17
$$
MNZ029>031-032-039>041-046>048-054>057-064-211300-
   West Central Minnesota

CITY           SKY/WX    TMP DP  RH WIND       PRES   REMARKS
FERGUS FALLS   CLOUDY    30  28  93 S16       29.83F FOG     WCI  19
WHEATON        CLOUDY    28  27  93 S6        29.82F FOG     WCI  22
MORRIS         CLOUDY    30  30 100 S12       29.81S FOG     WCI  21
ALEXANDRIA     CLOUDY    30  28  92 S10       29.82F FOG     WCI  21
ELBOW LAKE     CLOUDY    30  29  97 S13       29.81S FOG     WCI  20
WADENA         CLOUDY    28  28 100 S12       29.81F FOG     WCI  18
GLENWOOD       CLOUDY    30  28  93 S12G21    29.83F FOG     WCI  21
APPLETON       CLOUDY    32  30  93 S9        29.82F WCI  24
BENSON         CLOUDY    32  30  93 S12G17    29.82F FOG     WCI  23
ORTONVILLE     CLOUDY    30  27  86 S8        29.80F FOG     WCI  23
MADISON        MOCLDY    36  34  93 S12       29.82S FOG
WILLMAR        CLOUDY    32  30  93 S7        29.86F FOG     WCI  26
$$
MNZ033>034-036-042>043-049>051-058-059-211300-
   Central Minnesota

CITY           SKY/WX    TMP DP  RH WIND       PRES   REMARKS
ST CLOUD       CLOUDY    33  30  88 S9        29.89S FOG     WCI  25
6HR MIN TEMP:  32; 6HR MAX TEMP:  33;

SAUK CENTRE    CLOUDY    30  29  96 S12       29.85F FOG     WCI  21
PAYNESVILLE    CLOUDY    29  29 100 SE12      29.86F FOG     WCI  19
AITKIN         CLOUDY    32  27  80 S8        29.86F HAZE    WCI  25
PINE RIVER     CLOUDY    28  28 100 S14       29.87F FOG     WCI  17
BRAINERD       CLOUDY    30  28  92 S17       29.86F FOG     WCI  18
STAPLES        CLOUDY    28  28 100 S12G18    29.83S FOG     WCI  18
LONG PRAIRIE   CLOUDY    30  30 100 SE17      29.84F FOG     WCI  18
LITTLE FALLS   CLOUDY    32  30  93 SE9       29.87F FOG     WCI  24
LITCHFIELD     CLOUDY    34  34 100 S5        29.88S FOG     WCI  30
BUFFALO        CLOUDY    32  30  93 SE7       29.89F FOG     WCI  26
MAPLE LAKE     CLOUDY    33  32  96 S7        29.89F FOG     WCI  27
$$
MNZ037-044-045-052-053-211300-
   East Central Minnesota

CITY           SKY/WX    TMP DP  RH WIND       PRES   REMARKS
PRINCETON      CLOUDY    34  30  86 SE13      29.90F FOG     WCI  25
MORA           CLOUDY    32  28  86 SE5       29.93F WCI  27
CAMBRIDGE      CLOUDY    34  27  75 SE8       29.90S HAZE    WCI  27
RUSH CITY      CLOUDY    32  29  91 SE9       29.93F WCI  24
MOOSE LAKE     CLOUDY    30  28  93 S3        29.90S
HINCKLEY       CLOUDY    32  30  93 CALM      29.93S
CLOQUET        CLOUDY    30  27  86 S7        29.91S WCI  23
MCGREGOR       CLOUDY    30  30 100 S9G16     29.89F WCI  22
$$
MNZ071>073-080-081-089-090-097-098-211300-
   Southwest Minnesota

CITY           SKY/WX    TMP DP  RH WIND       PRES   REMARKS
MONTEVIDEO     CLOUDY    30  30 100 S8        29.84F WCI  23
GRANITE FALLS  CLOUDY    32  31  96 SE9       29.85F FOG     WCI  24
CANBY          CLOUDY    32  31  95 S5        29.83R FOG     WCI  27
MARSHALL       CLOUDY    32  28  86 S8        29.83F WCI  25
REDWOOD FALLS  CLOUDY    32  31  96 S10       29.85F FOG     WCI  24
OLIVIA         CLOUDY    32  30  93 S8        29.85F FOG     WCI  25
PIPESTONE      FOG       30  30 100 S5        29.79S VSB 1/2 WCI  25
WINDOM         MIX PCPN  32  32 100 SE10      29.83F VSB 1/2 WCI  24
WORTHINGTON    CLOUDY    30  30 100 S13       29.83F VSB 1/2 WCI  20
JACKSON        FOG       32  32 100 S8        29.85F VSB 1   WCI  25
TRACY          CLOUDY    32  32  99 S3        29.82F FOG
SLAYTON        FOG       31  31 100 S7        29.80F VSB 3/4 WCI  24
$$
MNZ065>067-074>077-082>085-091>093-211300-
   South Central Minnesota

CITY           SKY/WX    TMP DP  RH WIND       PRES   REMARKS
MANKATO        CLOUDY    34  30  86 S13       29.90F WCI  25
NEW ULM        FOG       32  32 100 S10       29.87F VSB 1/2 WCI  24
ST JAMES       FOG       34  34 100 SE10      29.88F VSB 1/2 WCI  26
FAIRMONT       CLOUDY    34  30  86 S14       29.87F VSB 1/2 WCI  24
GLENCOE        CLOUDY    33  33  98 SE14      29.87F FOG     WCI  24
FARIBAULT      CLOUDY    34  32  93 SE10      29.93F FOG     WCI  26
OWATONNA       FOG       34  32  93 SE17      29.93S VSB 1   WCI  23
WASECA         FOG       32  32 100 SE12      29.93F VSB 1   WCI  23
ALBERT LEA     FOG       34  34 100 S12G17    29.92F VSB<1/4 WCI  25
$$
MNZ078>079-086>088-094>096-211300-
   Southeast Minnesota

CITY           SKY/WX    TMP DP  RH WIND       PRES   REMARKS
ROCHESTER      FOG       32  31  96 S14       29.96F VSB 3/4 WCI  22
6HR MIN TEMP:  30; 6HR MAX TEMP:  32;

RED WING       CLOUDY    34  30  86 SE8       29.97F FOG     WCI  27
STANTON        CLOUDY    34  32  92 S9        29.93F FOG     WCI  27
DODGE CENTER   FOG       34  34 100 S16       29.93F VSB 1   WCI  23
WINONA         CLOUDY    34  32  93 SE7       30.02F FOG     WCI  28
AUSTIN         MIX PCPN  34  32  93 S8        29.94F VSB 1/4 WCI  27
PRESTON        FOG       31  31  99 S10       29.99S VSB 1/2 WCI  23
$$
ABBREVIATIONS USED IN REMARKS
   TC - TEMPERATURES IN CELSIUS
  WCI - WIND CHILL INDEX
   HX - HEAT INDEX
  VSB - VISIBILITY
$$


USA.gov is the U.S. government's official web portal to all federal, state and local government web resources and services.